Location: アルンシュタイン
(50.0000°N, 10.0000°E)
Time: 19:26:26
(UTC+02:00)

Courier 1B Rocket - Visible Passes

Search period start: 11 September 2024 00:00
Search period end: 21 September 2024 00:00
Orbit: 920 x 1201 km, 28.2° (Epoch: 10 September)

Date Brightness Start Highest point End Pass type
(mag) Time Alt. Az. Time Alt. Az. Time Alt. Az.
11 Sep 7.2 20:23:21 10° SSW 20:26:23 13° S 20:29:28 10° SSE visible
11 Sep 7.3 22:17:24 10° SSW 22:18:27 10° SSW 22:18:29 10° SSW visible
12 Sep 7.3 21:15:15 10° SSW 21:17:37 12° S 21:20:02 10° S visible
13 Sep 7.3 20:14:07 10° SSW 20:16:47 12° S 20:19:32 10° SSE visible
15 Sep 7.4 20:05:35 10° SSW 20:07:13 11° S 20:08:51 10° S visible
